Time,TemperatureF,DewpointF,PressureIn,WindDirection,WindDirectionDegrees,WindSpeedMPH,WindSpeedGustMPH,Humidity,HourlyPrecipIn,Conditions,Clouds,dailyrainin,SoftwareType,DateUTC
2013-06-15 00:01:00,58.1,55.5,29.97,WSW,248,1.9,2.3,91,0.00,CLR,,0.00,WeatherDisplay:10.37,2013-06-15 04:01:00,
2013-06-15 00:06:00,58.3,56.0,29.97,SSW,208,0.8,2.3,92,0.00,CLR,,0.00,WeatherDisplay:10.37,2013-06-15 04:06:00,
2013-06-15 00:11:00,58.2,55.9,29.97,SW,226,0.0,0.0,92,0.00,CLR,,0.00,WeatherDisplay:10.37,2013-06-15 04:11:00,
2013-06-15 00:16:00,57.9,55.6,29.97,SW,226,0.0,0.0,92,0.00,CLR,,0.00,WeatherDisplay:10.37,2013-06-15 04:16:00,
2013-06-15 00:21:00,57.5,55.2,29.97,SW,227,0.0,0.0,92,0.00,CLR,,0.00,WeatherDisplay:10.37,2013-06-15 04:21:00,
2013-06-15 00:26:00,57.2,55.2,29.98,SW,226,0.0,0.0,93,0.00,CLR,,0.00,WeatherDisplay:10.37,2013-06-15 04:26:00,
2013-06-15 00:31:00,57.0,55.0,29.98,SW,227,0.0,1.2,93,0.00,CLR,,0.00,WeatherDisplay:10.37,2013-06-15 04:31:00,
2013-06-15 00:36:00,56.8,54.8,29.98,SW,226,0.0,0.0,93,0.00,CLR,,0.00,WeatherDisplay:10.37,2013-06-15 04:36:00,
2013-06-15 00:41:00,56.6,54.6,29.98,SW,226,0.0,0.0,93,0.00,CLR,,0.00,WeatherDisplay:10.37,2013-06-15 04:41:00,
2013-06-15 00:46:00,56.5,54.8,29.98,SW,226,0.0,0.0,94,0.00,CLR,,0.00,WeatherDisplay:10.37,2013-06-15 04:46:00,
2013-06-15 00:51:00,56.3,54.6,29.98,SW,232,0.0,0.0,94,0.00,CLR,,0.00,WeatherDisplay:10.37,2013-06-15 04:51:00,
2013-06-15 00:56:00,56.1,54.4,29.98,SW,232,0.0,0.0,94,0.00,CLR,,0.00,WeatherDisplay:10.37,2013-06-15 04:56:00,
2013-06-15 01:01:00,55.9,54.2,29.98,SW,232,0.0,0.0,94,0.00,CLR,,0.00,WeatherDisplay:10.37,2013-06-15 05:01:00,
2013-06-15 01:06:00,55.7,54.0,29.98,SW,232,0.0,0.0,94,0.00,CLR,,0.00,WeatherDisplay:10.37,2013-06-15 05:06:00,
2013-06-15 01:11:00,55.5,53.8,29.98,SW,233,0.0,0.0,94,0.00,CLR,,0.00,WeatherDisplay:10.37,2013-06-15 05:11:00,
2013-06-15 01:16:00,55.3,53.6,29.98,SW,232,0.0,0.0,94,0.00,CLR,,0.00,WeatherDisplay:10.37,2013-06-15 05:16:00,
2013-06-15 01:21:00,55.0,53.3,29.98,SW,233,0.0,0.0,94,0.00,CLR,,0.00,WeatherDisplay:10.37,2013-06-15 05:21:00,
2013-06-15 01:26:00,54.9,53.5,29.98,SW,232,0.0,0.0,95,0.00,CLR,,0.00,WeatherDisplay:10.37,2013-06-15 05:26:00,
2013-06-15 01:31:00,54.9,53.5,29.98,SW,232,0.0,0.0,95,0.00,CLR,,0.00,WeatherDisplay:10.37,2013-06-15 05:31:00,
2013-06-15 01:36:00,54.6,53.2,29.98,SW,232,0.0,0.0,95,0.00,CLR,,0.00,WeatherDisplay:10.37,2013-06-15 05:36:00,
2013-06-15 01:41:00,54.3,52.9,29.98,SW,232,0.0,0.0,95,0.00,CLR,,0.00,WeatherDisplay:10.37,2013-06-15 05:41:00,
2013-06-15 01:46:00,54.4,53.0,29.97,SSE,163,0.0,0.0,95,0.00,CLR,,0.00,WeatherDisplay:10.37,2013-06-15 05:46:00,
2013-06-15 01:51:00,54.5,53.1,29.97,SSE,163,0.0,0.0,95,0.00,CLR,,0.00,WeatherDisplay:10.37,2013-06-15 05:51:00,
2013-06-15 01:56:00,54.4,53.0,29.98,SSE,163,0.0,0.0,95,0.00,CLR,,0.00,WeatherDisplay:10.37,2013-06-15 05:56:00,
2013-06-15 02:01:00,54.3,52.9,29.98,SSE,163,0.0,0.0,95,0.00,FEW,,0.00,WeatherDisplay:10.37,2013-06-15 06:01:00,
2013-06-15 02:06:00,54.1,53.0,29.98,SSE,163,0.0,0.0,96,0.00,FEW,,0.00,WeatherDisplay:10.37,2013-06-15 06:06:00,
2013-06-15 02:11:00,54.1,53.0,29.98,SSE,163,0.0,0.0,96,0.00,FEW,,0.00,WeatherDisplay:10.37,2013-06-15 06:11:00,
2013-06-15 02:16:00,54.0,52.9,29.98,SSE,163,0.0,0.0,96,0.00,FEW,,0.00,WeatherDisplay:10.37,2013-06-15 06:16:00,
2013-06-15 02:21:00,54.0,52.9,29.98,SSE,163,0.0,0.0,96,0.00,FEW,,0.00,WeatherDisplay:10.37,2013-06-15 06:21:00,
2013-06-15 02:26:00,54.0,52.9,29.98,SSE,163,0.0,0.0,96,0.00,FEW,,0.00,WeatherDisplay:10.37,2013-06-15 06:26:00,
2013-06-15 02:31:00,53.9,52.8,29.98,SSE,163,0.0,0.0,96,0.00,FEW,,0.00,WeatherDisplay:10.37,2013-06-15 06:31:00,
2013-06-15 02:36:00,53.9,52.8,29.98,SW,235,1.8,3.0,96,0.00,FEW,,0.00,WeatherDisplay:10.37,2013-06-15 06:36:00,
2013-06-15 02:41:00,54.1,53.0,29.98,WSW,238,0.6,3.5,96,0.00,FEW,,0.00,WeatherDisplay:10.37,2013-06-15 06:41:00,
2013-06-15 02:46:00,54.1,53.0,29.98,WSW,249,0.8,1.2,96,0.00,FEW,,0.00,WeatherDisplay:10.37,2013-06-15 06:46:00,
2013-06-15 02:51:00,54.0,52.9,29.97,WSW,240,0.8,1.2,96,0.00,FEW,,0.00,WeatherDisplay:10.37,2013-06-15 06:51:00,
2013-06-15 02:56:00,53.9,52.8,29.98,WSW,240,0.0,0.0,96,0.00,FEW,,0.00,WeatherDisplay:10.37,2013-06-15 06:56:00,
2013-06-15 03:01:00,53.6,52.5,29.97,WSW,240,0.0,0.0,96,0.00,SCT,,0.00,WeatherDisplay:10.37,2013-06-15 07:01:00,
2013-06-15 03:06:00,53.4,52.3,29.97,WSW,240,0.0,0.0,96,0.00,SCT,,0.00,WeatherDisplay:10.37,2013-06-15 07:06:00,
2013-06-15 03:11:00,53.2,52.1,29.97,WSW,240,0.1,1.2,96,0.00,SCT,,0.00,WeatherDisplay:10.37,2013-06-15 07:11:00,
2013-06-15 03:16:00,53.0,51.9,29.97,WSW,241,0.0,0.0,96,0.00,SCT,,0.00,WeatherDisplay:10.37,2013-06-15 07:16:00,
2013-06-15 03:21:00,52.8,51.7,29.97,WSW,240,0.0,0.0,96,0.00,SCT,,0.00,WeatherDisplay:10.37,2013-06-15 07:21:00,
2013-06-15 03:26:00,52.8,51.7,29.97,WSW,248,0.0,1.2,96,0.00,SCT,,0.00,WeatherDisplay:10.37,2013-06-15 07:26:00,
2013-06-15 03:31:00,52.9,51.8,29.97,WSW,250,0.8,1.2,96,0.00,SCT,,0.00,WeatherDisplay:10.37,2013-06-15 07:31:00,
2013-06-15 03:36:00,52.9,51.8,29.97,WSW,243,1.1,2.3,96,0.00,SCT,,0.00,WeatherDisplay:10.37,2013-06-15 07:36:00,
2013-06-15 03:41:00,52.9,51.8,29.98,SW,236,1.5,3.5,96,0.00,SCT,,0.00,WeatherDisplay:10.37,2013-06-15 07:41:00,
2013-06-15 03:46:00,52.9,51.8,29.97,WSW,255,0.2,1.2,96,0.00,SCT,,0.00,WeatherDisplay:10.37,2013-06-15 07:46:00,
2013-06-15 03:51:00,52.9,51.8,29.97,WSW,250,0.0,1.2,96,0.00,SCT,,0.00,WeatherDisplay:10.37,2013-06-15 07:51:00,
2013-06-15 03:56:00,52.8,51.7,29.97,WSW,250,0.7,1.2,96,0.00,SCT,,0.00,WeatherDisplay:10.37,2013-06-15 07:56:00,
2013-06-15 04:01:00,52.6,51.5,29.97,WSW,250,0.0,0.0,96,0.00,FEW,,0.00,WeatherDisplay:10.37,2013-06-15 08:01:00,
2013-06-15 04:07:00,52.3,50.9,29.97,WSW,250,0.8,1.2,95,0.00,FEW,,0.00,WeatherDisplay:10.37,2013-06-15 08:07:00,
2013-06-15 04:12:00,52.2,51.1,29.97,WSW,250,0.0,0.0,96,0.00,FEW,,0.00,WeatherDisplay:10.37,2013-06-15 08:12:00,
2013-06-15 04:17:00,52.1,51.0,29.97,WSW,250,0.0,0.0,96,0.00,FEW,,0.00,WeatherDisplay:10.37,2013-06-15 08:17:00,
2013-06-15 04:22:00,51.9,50.8,29.97,WSW,250,0.0,0.0,96,0.00,FEW,,0.00,WeatherDisplay:10.37,2013-06-15 08:22:00,
2013-06-15 04:27:00,51.8,50.7,29.97,WSW,250,0.0,0.0,96,0.00,FEW,,0.00,WeatherDisplay:10.37,2013-06-15 08:27:00,
2013-06-15 04:32:00,51.7,50.6,29.97,WSW,250,0.0,0.0,96,0.00,FEW,,0.00,WeatherDisplay:10.37,2013-06-15 08:32:00,
2013-06-15 04:37:00,51.3,50.2,29.97,WSW,250,0.0,0.0,96,0.00,FEW,,0.00,WeatherDisplay:10.37,2013-06-15 08:37:00,
2013-06-15 04:42:00,51.2,50.1,29.97,WSW,250,0.0,0.0,96,0.00,FEW,,0.00,WeatherDisplay:10.37,2013-06-15 08:42:00,
2013-06-15 04:47:00,51.1,50.0,29.97,WSW,250,0.0,0.0,96,0.00,FEW,,0.00,WeatherDisplay:10.37,2013-06-15 08:47:00,
2013-06-15 04:52:00,51.1,50.0,29.97,WSW,238,1.0,1.2,96,0.00,FEW,,0.00,WeatherDisplay:10.37,2013-06-15 08:52:00,
2013-06-15 04:57:00,51.1,50.0,29.97,SW,233,0.5,1.2,96,0.00,FEW,,0.00,WeatherDisplay:10.37,2013-06-15 08:57:00,
2013-06-15 05:02:00,50.9,49.8,29.97,SW,233,0.0,0.0,96,0.00,FEW,,0.00,WeatherDisplay:10.37,2013-06-15 09:02:00,
2013-06-15 05:07:00,50.8,49.7,29.97,SW,233,0.0,0.0,96,0.00,FEW,,0.00,WeatherDisplay:10.37,2013-06-15 09:07:00,
2013-06-15 05:12:00,50.7,49.6,29.98,WSW,240,1.0,2.3,96,0.00,FEW,,0.00,WeatherDisplay:10.37,2013-06-15 09:12:00,
2013-06-15 05:17:00,50.6,49.5,29.98,WSW,243,1.0,1.2,96,0.00,FEW,,0.00,WeatherDisplay:10.37,2013-06-15 09:17:00,
2013-06-15 05:22:00,50.6,49.5,29.98,WSW,248,1.0,1.2,96,0.00,FEW,,0.00,WeatherDisplay:10.37,2013-06-15 09:22:00,
2013-06-15 05:27:00,50.7,49.6,29.98,SW,214,0.7,2.0,96,0.00,FEW,,0.00,WeatherDisplay:10.37,2013-06-15 09:27:00,
2013-06-15 05:32:00,50.7,49.3,29.98,SW,229,0.5,1.2,95,0.00,FEW,,0.00,WeatherDisplay:10.37,2013-06-15 09:32:00,
2013-06-15 05:37:00,50.6,49.2,29.98,SW,233,1.1,2.3,95,0.00,FEW,,0.00,WeatherDisplay:10.37,2013-06-15 09:37:00,
2013-06-15 05:42:00,50.5,49.1,29.99,SW,223,0.5,2.3,95,0.00,FEW,,0.00,WeatherDisplay:10.37,2013-06-15 09:42:00,
2013-06-15 05:47:00,50.4,49.0,29.99,WSW,242,1.2,2.3,95,0.00,FEW,,0.00,WeatherDisplay:10.37,2013-06-15 09:47:00,
2013-06-15 05:52:00,50.3,48.9,29.99,WSW,242,0.0,0.0,95,0.00,FEW,,0.00,WeatherDisplay:10.37,2013-06-15 09:52:00,
2013-06-15 05:57:00,50.2,48.8,29.99,WSW,242,0.0,0.0,95,0.00,FEW,,0.00,WeatherDisplay:10.37,2013-06-15 09:57:00,
2013-06-15 06:02:00,50.0,48.6,30.00,SW,228,1.3,2.3,95,0.00,FEW,,0.00,WeatherDisplay:10.37,2013-06-15 10:02:00,
2013-06-15 06:07:00,50.0,48.6,30.00,WSW,240,1.0,2.3,95,0.00,FEW,,0.00,WeatherDisplay:10.37,2013-06-15 10:07:00,
2013-06-15 06:12:00,50.0,48.6,30.00,WSW,242,1.1,2.3,95,0.00,FEW,,0.00,WeatherDisplay:10.37,2013-06-15 10:12:00,
2013-06-15 06:17:00,50.1,49.0,30.00,WSW,239,0.6,1.2,96,0.00,FEW,,0.00,WeatherDisplay:10.37,2013-06-15 10:17:00,
2013-06-15 06:22:00,50.2,49.1,30.01,WSW,239,0.0,0.0,96,0.00,FEW,,0.00,WeatherDisplay:10.37,2013-06-15 10:22:00,
2013-06-15 06:27:00,50.2,48.8,30.01,WSW,239,0.0,0.0,95,0.00,FEW,,0.00,WeatherDisplay:10.37,2013-06-15 10:27:00,
2013-06-15 06:32:00,50.3,49.2,30.02,WSW,239,0.0,0.0,96,0.00,FEW,,0.00,WeatherDisplay:10.37,2013-06-15 10:32:00,
2013-06-15 06:37:00,50.5,49.4,30.02,WSW,239,0.0,0.0,96,0.00,FEW,,0.00,WeatherDisplay:10.37,2013-06-15 10:37:00,
2013-06-15 06:42:00,50.6,49.5,30.02,WSW,240,0.0,0.0,96,0.00,FEW,,0.00,WeatherDisplay:10.37,2013-06-15 10:42:00,
2013-06-15 06:47:00,50.7,49.6,30.02,WSW,241,0.0,0.0,96,0.00,FEW,,0.00,WeatherDisplay:10.37,2013-06-15 10:47:00,
2013-06-15 06:52:00,50.9,49.8,30.02,WSW,241,0.0,0.0,96,0.00,FEW,,0.00,WeatherDisplay:10.37,2013-06-15 10:52:00,
2013-06-15 06:57:00,51.1,50.0,30.02,South,184,0.0,0.0,96,0.00,FEW,,0.00,WeatherDisplay:10.37,2013-06-15 10:57:00,
2013-06-15 07:02:00,51.2,50.1,30.02,SSE,153,0.4,1.0,96,0.00,SCT,,0.00,WeatherDisplay:10.37,2013-06-15 11:02:00,
2013-06-15 07:07:00,51.5,50.4,30.02,SSE,160,0.5,1.2,96,0.00,SCT,,0.00,WeatherDisplay:10.37,2013-06-15 11:07:00,
2013-06-15 07:12:00,51.8,50.7,30.02,SSW,208,0.0,0.0,96,0.00,SCT,,0.00,WeatherDisplay:10.37,2013-06-15 11:12:00,
2013-06-15 07:17:00,52.1,50.7,30.02,SSW,208,0.0,0.0,95,0.00,SCT,,0.00,WeatherDisplay:10.37,2013-06-15 11:17:00,
2013-06-15 07:22:00,52.4,51.0,30.01,SSW,211,0.7,1.2,95,0.00,SCT,,0.00,WeatherDisplay:10.37,2013-06-15 11:22:00,
2013-06-15 07:27:00,52.8,51.4,30.02,SW,219,0.1,0.0,95,0.00,SCT,,0.00,WeatherDisplay:10.37,2013-06-15 11:27:00,
2013-06-15 07:32:00,53.2,51.8,30.02,WSW,246,3.2,3.5,95,0.00,SCT,,0.00,WeatherDisplay:10.37,2013-06-15 11:32:00,
2013-06-15 07:37:00,53.6,51.9,30.02,SW,236,1.2,3.5,94,0.00,SCT,,0.00,WeatherDisplay:10.37,2013-06-15 11:37:00,
2013-06-15 07:42:00,53.9,51.6,30.02,WSW,249,2.4,5.8,92,0.00,SCT,,0.00,WeatherDisplay:10.37,2013-06-15 11:42:00,
2013-06-15 07:47:00,54.4,51.8,30.02,WSW,246,3.3,5.8,91,0.00,SCT,,0.00,WeatherDisplay:10.37,2013-06-15 11:47:00,
2013-06-15 07:52:00,54.7,51.5,30.01,SW,225,3.7,4.6,89,0.00,SCT,,0.00,WeatherDisplay:10.37,2013-06-15 11:52:00,
2013-06-15 07:57:00,55.1,51.6,30.02,SW,231,2.9,4.6,88,0.00,SCT,,0.00,WeatherDisplay:10.37,2013-06-15 11:57:00,
2013-06-15 08:02:00,55.5,52.0,30.02,SW,232,0.9,3.5,88,0.00,FEW,,0.00,WeatherDisplay:10.37,2013-06-15 12:02:00,
2013-06-15 08:07:00,55.9,51.5,30.02,West,259,5.7,5.8,85,0.00,FEW,,0.00,WeatherDisplay:10.37,2013-06-15 12:07:00,
2013-06-15 08:12:00,56.2,51.4,30.02,SW,225,5.2,8.1,84,0.00,FEW,,0.00,WeatherDisplay:10.37,2013-06-15 12:12:00,
2013-06-15 08:17:00,56.6,51.5,30.02,West,260,6.2,6.9,83,0.00,FEW,,0.00,WeatherDisplay:10.37,2013-06-15 12:17:00,
2013-06-15 08:22:00,57.0,51.2,30.02,WSW,242,6.2,9.2,81,0.00,FEW,,0.00,WeatherDisplay:10.37,2013-06-15 12:22:00,
2013-06-15 08:27:00,57.3,51.9,30.03,SSW,197,2.7,5.8,82,0.00,FEW,,0.00,WeatherDisplay:10.37,2013-06-15 12:27:00,
2013-06-15 08:32:00,57.7,52.2,30.03,WSW,248,6.9,8.0,82,0.00,FEW,,0.00,WeatherDisplay:10.37,2013-06-15 12:32:00,
2013-06-15 08:37:00,58.0,52.5,30.03,WSW,238,6.0,8.1,82,0.00,FEW,,0.00,WeatherDisplay:10.37,2013-06-15 12:37:00,
2013-06-15 08:42:00,58.3,52.5,30.03,WSW,255,4.8,6.9,81,0.00,FEW,,0.00,WeatherDisplay:10.37,2013-06-15 12:42:00,
2013-06-15 08:47:00,58.8,52.6,30.02,West,260,4.0,8.1,80,0.00,FEW,,0.00,WeatherDisplay:10.37,2013-06-15 12:47:00,
2013-06-15 08:52:00,59.1,51.9,30.02,WSW,238,5.7,9.2,77,0.00,FEW,,0.00,WeatherDisplay:10.37,2013-06-15 12:52:00,
2013-06-15 08:57:00,59.3,51.7,30.02,WSW,253,6.0,8.1,76,0.00,FEW,,0.00,WeatherDisplay:10.37,2013-06-15 12:57:00,
2013-06-15 09:02:00,59.8,52.2,30.02,West,259,4.1,6.0,76,0.00,BKN,,0.00,WeatherDisplay:10.37,2013-06-15 13:02:00,
2013-06-15 09:07:00,60.2,52.2,30.03,SW,225,7.7,10.0,75,0.00,BKN,,0.00,WeatherDisplay:10.37,2013-06-15 13:07:00,
2013-06-15 09:12:00,60.6,52.3,30.03,SW,226,7.3,8.1,74,0.00,BKN,,0.00,WeatherDisplay:10.37,2013-06-15 13:12:00,
2013-06-15 09:17:00,60.8,52.8,30.02,WSW,255,7.2,7.2,75,0.00,BKN,,0.00,WeatherDisplay:10.37,2013-06-15 13:17:00,
2013-06-15 09:22:00,61.0,52.7,30.02,SW,235,5.4,5.8,74,0.00,BKN,,0.00,WeatherDisplay:10.37,2013-06-15 13:22:00,
2013-06-15 09:27:00,61.4,52.7,30.03,SW,234,6.3,6.9,73,0.00,BKN,,0.00,WeatherDisplay:10.37,2013-06-15 13:27:00,
2013-06-15 09:32:00,61.8,53.4,30.03,SW,234,4.5,8.1,74,0.00,BKN,,0.00,WeatherDisplay:10.37,2013-06-15 13:32:00,
2013-06-15 09:37:00,62.1,52.6,30.03,West,271,7.4,7.4,71,0.00,BKN,,0.00,WeatherDisplay:10.37,2013-06-15 13:37:00,
2013-06-15 09:42:00,62.6,52.7,30.03,SW,217,6.3,9.2,70,0.00,BKN,,0.00,WeatherDisplay:10.37,2013-06-15 13:42:00,
2013-06-15 09:47:00,62.8,53.3,30.03,WSW,245,6.9,8.0,71,0.00,BKN,,0.00,WeatherDisplay:10.37,2013-06-15 13:47:00,
2013-06-15 09:52:00,62.8,53.3,30.03,West,266,5.1,9.2,71,0.00,BKN,,0.00,WeatherDisplay:10.37,2013-06-15 13:52:00,
2013-06-15 09:57:00,63.1,53.2,30.03,SW,217,4.7,6.9,70,0.00,BKN,,0.00,WeatherDisplay:10.37,2013-06-15 13:57:00,
2013-06-15 10:02:00,63.5,53.1,30.03,SW,222,7.6,11.5,69,0.00,BKN,,0.00,WeatherDisplay:10.37,2013-06-15 14:02:00,
2013-06-15 10:07:00,63.9,53.9,30.03,SW,218,5.8,6.0,70,0.00,BKN,,0.00,WeatherDisplay:10.37,2013-06-15 14:07:00,
2013-06-15 10:12:00,64.1,54.1,30.03,SSW,208,2.6,9.2,70,0.00,BKN,,0.00,WeatherDisplay:10.37,2013-06-15 14:12:00,
2013-06-15 10:17:00,64.9,54.1,30.03,WSW,239,3.9,6.0,68,0.00,BKN,,0.00,WeatherDisplay:10.37,2013-06-15 14:17:00,
2013-06-15 10:22:00,65.0,53.8,30.03,SW,224,2.9,4.6,67,0.00,BKN,,0.00,WeatherDisplay:10.37,2013-06-15 14:22:00,
2013-06-15 10:27:00,65.3,54.1,30.03,WSW,240,4.7,6.0,67,0.00,BKN,,0.00,WeatherDisplay:10.37,2013-06-15 14:27:00,
2013-06-15 10:32:00,65.4,52.9,30.03,SSW,210,5.6,9.2,64,0.00,BKN,,0.00,WeatherDisplay:10.37,2013-06-15 14:32:00,
2013-06-15 10:37:00,65.3,53.2,30.03,WSW,238,5.8,9.2,65,0.00,BKN,,0.00,WeatherDisplay:10.37,2013-06-15 14:37:00,
2013-06-15 10:42:00,65.4,52.9,30.03,WSW,256,6.3,9.2,64,0.00,BKN,,0.00,WeatherDisplay:10.37,2013-06-15 14:42:00,
2013-06-15 10:47:00,65.7,53.6,30.03,SW,227,5.7,11.0,65,0.00,BKN,,0.00,WeatherDisplay:10.37,2013-06-15 14:47:00,
2013-06-15 10:52:00,65.8,53.7,30.03,SW,232,5.5,8.1,65,0.00,BKN,,0.00,WeatherDisplay:10.37,2013-06-15 14:52:00,
2013-06-15 10:57:00,66.4,52.1,30.03,WSW,248,10.3,15.0,60,0.00,BKN,,0.00,WeatherDisplay:10.37,2013-06-15 14:57:00,
2013-06-15 11:02:00,66.4,51.2,30.03,SW,233,7.5,12.7,58,0.00,BKN,,0.00,WeatherDisplay:10.37,2013-06-15 15:02:00,
2013-06-15 11:07:00,66.4,52.1,30.03,West,264,6.5,12.7,60,0.00,BKN,,0.00,WeatherDisplay:10.37,2013-06-15 15:07:00,
2013-06-15 11:12:00,66.6,50.9,30.03,SW,217,5.1,6.0,57,0.00,BKN,,0.00,WeatherDisplay:10.37,2013-06-15 15:12:00,
2013-06-15 11:17:00,67.0,52.7,30.03,SW,236,5.4,11.5,60,0.00,BKN,,0.00,WeatherDisplay:10.37,2013-06-15 15:17:00,
2013-06-15 11:22:00,67.4,50.7,30.03,SW,225,9.9,12.7,55,0.00,BKN,,0.00,WeatherDisplay:10.37,2013-06-15 15:22:00,
2013-06-15 11:27:00,66.9,49.7,30.03,WSW,243,6.8,11.5,54,0.00,BKN,,0.00,WeatherDisplay:10.37,2013-06-15 15:27:00,
2013-06-15 11:32:00,66.4,49.2,30.03,SSE,159,7.7,12.7,54,0.00,BKN,,0.00,WeatherDisplay:10.37,2013-06-15 15:32:00,
2013-06-15 11:37:00,66.7,52.4,30.03,WNW,296,6.1,8.1,60,0.00,BKN,,0.00,WeatherDisplay:10.37,2013-06-15 15:37:00,
2013-06-15 11:42:00,67.3,51.5,30.03,West,274,5.4,8.1,57,0.00,BKN,,0.00,WeatherDisplay:10.37,2013-06-15 15:42:00,
2013-06-15 11:47:00,68.0,50.7,30.03,WNW,291,7.1,11.5,54,0.00,BKN,,0.00,WeatherDisplay:10.37,2013-06-15 15:47:00,
2013-06-15 11:52:00,68.3,49.5,30.02,SW,218,5.3,9.2,51,0.00,BKN,,0.00,WeatherDisplay:10.37,2013-06-15 15:52:00,
2013-06-15 11:57:00,68.6,51.8,30.02,WSW,240,5.9,6.9,55,0.00,BKN,,0.00,WeatherDisplay:10.37,2013-06-15 15:57:00,
2013-06-15 12:03:00,69.2,51.3,30.01,SW,231,5.1,8.1,53,0.00,BKN,,0.00,WeatherDisplay:10.37,2013-06-15 16:03:00,
2013-06-15 12:08:00,69.5,48.9,30.01,SW,225,13.6,17.3,48,0.00,BKN,,0.00,WeatherDisplay:10.37,2013-06-15 16:08:00,
2013-06-15 12:13:00,69.1,50.2,30.02,WSW,246,6.7,11.5,51,0.00,BKN,,0.00,WeatherDisplay:10.37,2013-06-15 16:13:00,
2013-06-15 12:18:00,69.3,48.2,30.01,West,266,5.4,8.1,47,0.00,BKN,,0.00,WeatherDisplay:10.37,2013-06-15 16:18:00,
2013-06-15 12:23:00,69.4,48.3,30.01,SW,232,9.3,12.7,47,0.00,BKN,,0.00,WeatherDisplay:10.37,2013-06-15 16:23:00,
2013-06-15 12:27:00,69.2,46.9,30.01,West,266,4.1,8.1,45,0.00,BKN,,0.00,WeatherDisplay:10.37,2013-06-15 16:27:00,
2013-06-15 12:32:00,69.9,48.2,30.01,WNW,285,5.1,7.0,46,0.00,BKN,,0.00,WeatherDisplay:10.37,2013-06-15 16:32:00,
2013-06-15 12:38:00,70.0,50.0,30.01,West,262,6.2,11.5,49,0.00,BKN,,0.00,WeatherDisplay:10.37,2013-06-15 16:38:00,
2013-06-15 12:42:00,70.5,47.5,30.01,WSW,257,7.1,10.4,44,0.00,BKN,,0.00,WeatherDisplay:10.37,2013-06-15 16:42:00,
2013-06-15 12:48:00,70.2,51.2,30.01,SW,219,6.7,12.7,51,0.00,BKN,,0.00,WeatherDisplay:10.37,2013-06-15 16:48:00,
2013-06-15 12:53:00,70.1,47.8,30.00,SW,228,10.8,13.8,45,0.00,BKN,,0.00,WeatherDisplay:10.37,2013-06-15 16:53:00,
2013-06-15 12:58:00,69.9,47.6,30.00,WSW,243,9.4,11.5,45,0.00,BKN,,0.00,WeatherDisplay:10.37,2013-06-15 16:58:00,
2013-06-15 13:03:00,70.0,49.4,30.00,WSW,242,9.0,11.5,48,0.00,SCT,,0.00,WeatherDisplay:10.37,2013-06-15 17:03:00,
2013-06-15 13:08:00,70.2,50.1,30.00,WSW,238,8.3,11.0,49,0.00,SCT,,0.00,WeatherDisplay:10.37,2013-06-15 17:08:00,
2013-06-15 13:13:00,70.5,49.3,30.00,WSW,256,4.4,9.2,47,0.00,SCT,,0.00,WeatherDisplay:10.37,2013-06-15 17:13:00,
2013-06-15 13:18:00,70.8,51.8,30.00,SW,217,8.4,11.5,51,0.00,SCT,,0.00,WeatherDisplay:10.37,2013-06-15 17:18:00,
2013-06-15 13:23:00,70.7,49.5,30.00,NNW,327,6.5,12.7,47,0.00,SCT,,0.00,WeatherDisplay:10.37,2013-06-15 17:23:00,
2013-06-15 13:28:00,71.1,53.6,30.00,WSW,252,4.5,8.1,54,0.00,SCT,,0.00,WeatherDisplay:10.37,2013-06-15 17:28:00,
2013-06-15 13:33:00,71.3,53.3,29.99,WSW,257,6.4,9.2,53,0.00,SCT,,0.00,WeatherDisplay:10.37,2013-06-15 17:33:00,
2013-06-15 13:38:00,71.6,56.0,29.99,SSW,210,5.2,9.2,58,0.00,SCT,,0.00,WeatherDisplay:10.37,2013-06-15 17:38:00,
2013-06-15 13:43:00,71.9,53.8,29.99,WSW,240,4.2,5.8,53,0.00,SCT,,0.00,WeatherDisplay:10.37,2013-06-15 17:43:00,
2013-06-15 13:48:00,71.7,44.7,29.99,SSW,205,10.8,15.0,38,0.00,SCT,,0.00,WeatherDisplay:10.37,2013-06-15 17:48:00,
2013-06-15 13:53:00,71.8,47.5,29.99,NW,316,3.1,8.0,42,0.00,SCT,,0.00,WeatherDisplay:10.37,2013-06-15 17:53:00,
2013-06-15 13:58:00,72.1,43.7,29.99,WSW,255,6.2,11.5,36,0.00,SCT,,0.00,WeatherDisplay:10.37,2013-06-15 17:58:00,
2013-06-15 14:03:00,72.3,45.9,29.99,WNW,291,5.0,9.0,39,0.00,BKN,,0.00,WeatherDisplay:10.37,2013-06-15 18:03:00,
2013-06-15 14:08:00,71.9,48.2,29.98,WSW,248,3.1,4.6,43,0.00,BKN,,0.00,WeatherDisplay:10.37,2013-06-15 18:08:00,
2013-06-15 14:13:00,72.7,52.4,29.99,SW,224,4.8,5.8,49,0.00,BKN,,0.00,WeatherDisplay:10.37,2013-06-15 18:13:00,
2013-06-15 14:18:00,72.7,53.0,29.98,WSW,252,4.8,6.9,50,0.00,BKN,,0.00,WeatherDisplay:10.37,2013-06-15 18:18:00,
2013-06-15 14:23:00,72.9,55.3,29.98,SSW,201,2.8,5.8,54,0.00,BKN,,0.00,WeatherDisplay:10.37,2013-06-15 18:23:00,
2013-06-15 14:28:00,73.3,53.0,29.98,West,262,6.2,8.1,49,0.00,BKN,,0.00,WeatherDisplay:10.37,2013-06-15 18:28:00,
2013-06-15 14:33:00,72.7,51.3,29.98,WSW,249,3.1,3.5,47,0.00,BKN,,0.00,WeatherDisplay:10.37,2013-06-15 18:33:00,
2013-06-15 14:38:00,72.7,53.5,29.98,SSW,200,5.5,11.5,51,0.00,BKN,,0.00,WeatherDisplay:10.37,2013-06-15 18:38:00,
2013-06-15 14:43:00,73.1,56.5,29.98,ESE,117,5.7,8.1,56,0.00,BKN,,0.00,WeatherDisplay:10.37,2013-06-15 18:43:00,
2013-06-15 14:48:00,73.1,56.0,29.98,SSW,207,2.5,6.9,55,0.00,BKN,,0.00,WeatherDisplay:10.37,2013-06-15 18:48:00,
2013-06-15 14:53:00,73.0,55.9,29.98,SW,214,5.3,5.3,55,0.00,BKN,,0.00,WeatherDisplay:10.37,2013-06-15 18:53:00,
2013-06-15 14:58:00,72.8,57.2,29.97,SW,217,4.8,9.2,58,0.00,BKN,,0.00,WeatherDisplay:10.37,2013-06-15 18:58:00,
2013-06-15 15:03:00,72.6,57.0,29.98,SSW,200,3.1,5.8,58,0.00,BKN,,0.00,WeatherDisplay:10.37,2013-06-15 19:03:00,
2013-06-15 15:08:00,72.7,56.6,29.97,SSE,151,4.9,8.1,57,0.00,BKN,,0.00,WeatherDisplay:10.37,2013-06-15 19:08:00,
2013-06-15 15:13:00,72.5,55.4,29.97,SW,232,7.0,10.4,55,0.00,BKN,,0.00,WeatherDisplay:10.37,2013-06-15 19:13:00,
2013-06-15 15:18:00,71.6,56.0,29.97,SW,221,4.3,8.1,58,0.00,BKN,,0.00,WeatherDisplay:10.37,2013-06-15 19:18:00,
2013-06-15 15:23:00,71.0,55.9,29.98,SW,232,3.8,7.0,59,0.00,BKN,,0.00,WeatherDisplay:10.37,2013-06-15 19:23:00,
2013-06-15 15:28:00,70.3,55.8,29.97,SSE,158,3.9,10.4,60,0.00,BKN,,0.00,WeatherDisplay:10.37,2013-06-15 19:28:00,
2013-06-15 15:33:00,70.6,56.0,29.97,SSW,210,3.1,5.8,60,0.00,BKN,,0.00,WeatherDisplay:10.37,2013-06-15 19:33:00,
2013-06-15 15:38:00,70.9,55.9,29.98,SSE,147,3.8,8.1,59,0.00,BKN,,0.00,WeatherDisplay:10.37,2013-06-15 19:38:00,
2013-06-15 15:43:00,70.6,55.1,29.97,SW,231,6.0,13.8,58,0.00,BKN,,0.00,WeatherDisplay:10.37,2013-06-15 19:43:00,
2013-06-15 15:48:00,70.5,54.5,29.97,SSW,205,5.4,11.5,57,0.00,BKN,,0.00,WeatherDisplay:10.37,2013-06-15 19:48:00,
2013-06-15 15:53:00,70.5,54.5,29.97,SSW,210,7.6,10.4,57,0.00,BKN,,0.00,WeatherDisplay:10.37,2013-06-15 19:53:00,
2013-06-15 15:58:00,70.4,54.4,29.97,WSW,252,2.9,3.5,57,0.00,BKN,,0.00,WeatherDisplay:10.37,2013-06-15 19:58:00,
2013-06-15 16:03:00,70.8,54.8,29.97,SSE,153,3.0,10.4,57,0.00,BKN,,0.00,WeatherDisplay:10.37,2013-06-15 20:03:00,
2013-06-15 16:08:00,71.1,53.6,29.97,South,173,4.1,8.1,54,0.00,BKN,,0.00,WeatherDisplay:10.37,2013-06-15 20:08:00,
2013-06-15 16:13:00,71.3,52.8,29.97,SSW,211,7.4,11.5,52,0.00,BKN,,0.00,WeatherDisplay:10.37,2013-06-15 20:13:00,
2013-06-15 16:18:00,71.2,53.7,29.97,SW,226,6.0,10.4,54,0.00,BKN,,0.00,WeatherDisplay:10.37,2013-06-15 20:18:00,
2013-06-15 16:23:00,71.1,54.6,29.96,SW,231,5.2,8.1,56,0.00,BKN,,0.00,WeatherDisplay:10.37,2013-06-15 20:23:00,
2013-06-15 16:28:00,71.0,53.0,29.96,SW,217,4.5,6.9,53,0.00,BKN,,0.00,WeatherDisplay:10.37,2013-06-15 20:28:00,
2013-06-15 16:33:00,71.4,53.4,29.96,South,181,4.1,6.9,53,0.00,BKN,,0.00,WeatherDisplay:10.37,2013-06-15 20:33:00,
2013-06-15 16:38:00,71.7,55.2,29.96,SW,214,3.0,3.5,56,0.00,BKN,,0.00,WeatherDisplay:10.37,2013-06-15 20:38:00,
2013-06-15 16:43:00,72.0,53.4,29.96,SSW,200,3.3,4.6,52,0.00,BKN,,0.00,WeatherDisplay:10.37,2013-06-15 20:43:00,
2013-06-15 16:48:00,72.4,54.8,29.96,South,187,4.1,8.1,54,0.00,BKN,,0.00,WeatherDisplay:10.37,2013-06-15 20:48:00,
2013-06-15 16:53:00,72.2,53.6,29.96,WSW,248,4.8,9.2,52,0.00,BKN,,0.00,WeatherDisplay:10.37,2013-06-15 20:53:00,
2013-06-15 16:58:00,72.1,53.0,29.95,SSW,198,4.3,5.8,51,0.00,BKN,,0.00,WeatherDisplay:10.37,2013-06-15 20:58:00,
2013-06-15 17:03:00,72.4,55.3,29.95,SSE,154,4.1,5.8,55,0.00,BKN,,0.00,WeatherDisplay:10.37,2013-06-15 21:03:00,
2013-06-15 17:08:00,72.3,52.6,29.95,South,188,4.8,6.9,50,0.00,BKN,,0.00,WeatherDisplay:10.37,2013-06-15 21:08:00,
2013-06-15 17:13:00,72.1,53.0,29.95,SW,217,5.4,11.5,51,0.00,BKN,,0.00,WeatherDisplay:10.37,2013-06-15 21:13:00,
2013-06-15 17:19:00,71.9,52.8,29.95,SSW,211,5.5,7.0,51,0.00,BKN,,0.00,WeatherDisplay:10.37,2013-06-15 21:19:00,
2013-06-15 17:24:00,71.6,53.6,29.95,SSW,211,5.0,8.1,53,0.00,BKN,,0.00,WeatherDisplay:10.37,2013-06-15 21:24:00,
2013-06-15 17:29:00,71.2,54.7,29.95,South,191,7.7,11.5,56,0.00,BKN,,0.00,WeatherDisplay:10.37,2013-06-15 21:29:00,
2013-06-15 17:34:00,71.2,53.2,29.95,SSW,205,5.7,9.2,53,0.00,BKN,,0.00,WeatherDisplay:10.37,2013-06-15 21:34:00,
2013-06-15 17:39:00,71.3,54.8,29.95,SSW,203,2.6,4.6,56,0.00,BKN,,0.00,WeatherDisplay:10.37,2013-06-15 21:39:00,
2013-06-15 17:44:00,71.3,54.8,29.95,SW,221,3.9,5.0,56,0.00,BKN,,0.00,WeatherDisplay:10.37,2013-06-15 21:44:00,
2013-06-15 17:49:00,70.8,53.8,29.94,SW,222,3.0,5.0,55,0.00,BKN,,0.00,WeatherDisplay:10.37,2013-06-15 21:49:00,
2013-06-15 17:54:00,70.7,54.2,29.95,SW,218,4.9,8.1,56,0.00,BKN,,0.00,WeatherDisplay:10.37,2013-06-15 21:54:00,
2013-06-15 17:59:00,70.7,54.2,29.94,WSW,256,3.3,5.8,56,0.00,BKN,,0.00,WeatherDisplay:10.37,2013-06-15 21:59:00,
2013-06-15 18:04:00,70.6,54.1,29.94,SSW,210,2.8,11.5,56,0.00,BKN,,0.00,WeatherDisplay:10.37,2013-06-15 22:04:00,
2013-06-15 18:09:00,70.5,54.0,29.95,SSW,205,3.0,4.6,56,0.00,BKN,,0.00,WeatherDisplay:10.37,2013-06-15 22:09:00,
2013-06-15 18:14:00,70.6,54.1,29.95,SSW,200,3.3,9.0,56,0.00,BKN,,0.00,WeatherDisplay:10.37,2013-06-15 22:14:00,
2013-06-15 18:19:00,70.7,54.2,29.95,SSW,212,3.8,6.9,56,0.00,BKN,,0.00,WeatherDisplay:10.37,2013-06-15 22:19:00,
2013-06-15 18:24:00,70.9,53.9,29.95,SSW,205,4.5,5.8,55,0.00,BKN,,0.00,WeatherDisplay:10.37,2013-06-15 22:24:00,
2013-06-15 18:29:00,71.4,54.9,29.94,South,174,2.4,5.0,56,0.00,BKN,,0.00,WeatherDisplay:10.37,2013-06-15 22:29:00,
2013-06-15 18:34:00,71.3,53.8,29.94,SW,215,1.8,9.2,54,0.00,BKN,,0.00,WeatherDisplay:10.37,2013-06-15 22:34:00,
2013-06-15 18:39:00,71.1,54.1,29.94,SSW,193,3.0,5.8,55,0.00,BKN,,0.00,WeatherDisplay:10.37,2013-06-15 22:39:00,
2013-06-15 18:44:00,70.8,53.3,29.94,SSW,205,4.2,6.9,54,0.00,BKN,,0.00,WeatherDisplay:10.37,2013-06-15 22:44:00,
2013-06-15 18:49:00,70.4,54.4,29.94,SSW,210,3.1,8.1,57,0.00,BKN,,0.00,WeatherDisplay:10.37,2013-06-15 22:49:00,
2013-06-15 18:54:00,70.4,54.4,29.94,SSW,211,1.6,3.5,57,0.00,BKN,,0.00,WeatherDisplay:10.37,2013-06-15 22:54:00,
2013-06-15 18:59:00,70.7,54.2,29.94,South,185,2.2,6.0,56,0.00,BKN,,0.00,WeatherDisplay:10.37,2013-06-15 22:59:00,
2013-06-15 19:04:00,70.5,54.0,29.93,South,173,1.5,3.5,56,0.00,BKN,,0.00,WeatherDisplay:10.37,2013-06-15 23:04:00,
2013-06-15 19:09:00,70.1,53.2,29.93,SW,235,2.4,4.6,55,0.00,BKN,,0.00,WeatherDisplay:10.37,2013-06-15 23:09:00,
2013-06-15 19:14:00,69.7,54.3,29.93,SSW,207,1.8,2.3,58,0.00,BKN,,0.00,WeatherDisplay:10.37,2013-06-15 23:14:00,
2013-06-15 19:19:00,69.4,53.5,29.93,SSE,159,3.2,5.0,57,0.00,BKN,,0.00,WeatherDisplay:10.37,2013-06-15 23:19:00,
2013-06-15 19:24:00,69.0,53.6,29.93,SW,214,2.5,5.0,58,0.00,BKN,,0.00,WeatherDisplay:10.37,2013-06-15 23:24:00,
2013-06-15 19:29:00,68.7,53.8,29.93,South,184,1.8,3.5,59,0.00,BKN,,0.00,WeatherDisplay:10.37,2013-06-15 23:29:00,
2013-06-15 19:34:00,68.4,54.0,29.93,SSW,208,1.2,2.3,60,0.00,BKN,,0.00,WeatherDisplay:10.37,2013-06-15 23:34:00,
2013-06-15 19:39:00,68.0,53.6,29.93,SSW,207,3.2,4.6,60,0.00,BKN,,0.00,WeatherDisplay:10.37,2013-06-15 23:39:00,
2013-06-15 19:44:00,67.8,53.9,29.93,SW,214,0.8,3.5,61,0.00,BKN,,0.00,WeatherDisplay:10.37,2013-06-15 23:44:00,
2013-06-15 19:49:00,67.6,54.1,29.93,SSW,211,1.2,3.5,62,0.00,BKN,,0.00,WeatherDisplay:10.37,2013-06-15 23:49:00,
2013-06-15 19:54:00,67.4,54.4,29.93,NW,308,1.3,3.5,63,0.00,BKN,,0.00,WeatherDisplay:10.37,2013-06-15 23:54:00,
2013-06-15 19:59:00,67.2,55.0,29.93,South,176,2.0,2.3,65,0.00,BKN,,0.00,WeatherDisplay:10.37,2013-06-15 23:59:00,
2013-06-15 20:04:00,67.0,54.4,29.93,SW,221,2.4,3.5,64,0.00,BKN,,0.00,WeatherDisplay:10.37,2013-06-16 00:04:00,
2013-06-15 20:09:00,67.0,54.8,29.93,SW,229,1.3,3.5,65,0.00,BKN,,0.00,WeatherDisplay:10.37,2013-06-16 00:09:00,
2013-06-15 20:14:00,66.9,54.7,29.93,SW,224,3.0,6.9,65,0.00,BKN,,0.00,WeatherDisplay:10.37,2013-06-16 00:14:00,
2013-06-15 20:19:00,66.8,55.1,29.93,SSW,202,1.9,3.5,66,0.00,BKN,,0.00,WeatherDisplay:10.37,2013-06-16 00:19:00,
2013-06-15 20:24:00,66.6,54.5,29.93,SSE,153,1.8,4.6,65,0.00,BKN,,0.00,WeatherDisplay:10.37,2013-06-16 00:24:00,
2013-06-15 20:29:00,66.4,54.7,29.93,South,170,1.9,3.5,66,0.00,BKN,,0.00,WeatherDisplay:10.37,2013-06-16 00:29:00,
2013-06-15 20:34:00,66.2,54.5,29.93,WSW,245,2.4,3.5,66,0.00,BKN,,0.00,WeatherDisplay:10.37,2013-06-16 00:34:00,
2013-06-15 20:39:00,65.9,55.0,29.93,SW,231,1.2,1.2,68,0.00,BKN,,0.00,WeatherDisplay:10.37,2013-06-16 00:39:00,
2013-06-15 20:44:00,65.5,54.7,29.93,SSW,194,3.0,3.0,68,0.00,BKN,,0.00,WeatherDisplay:10.37,2013-06-16 00:44:00,
2013-06-15 20:49:00,65.3,54.9,29.93,SSW,195,2.4,2.4,69,0.00,BKN,,0.00,WeatherDisplay:10.37,2013-06-16 00:49:00,
2013-06-15 20:54:00,65.1,54.7,29.93,South,191,2.7,4.6,69,0.00,BKN,,0.00,WeatherDisplay:10.37,2013-06-16 00:54:00,
2013-06-15 20:59:00,65.0,55.0,29.93,SW,226,1.4,3.5,70,0.00,BKN,,0.00,WeatherDisplay:10.37,2013-06-16 00:59:00,
2013-06-15 21:04:00,64.8,55.2,29.93,SSW,211,1.2,2.3,71,0.00,BKN,,0.00,WeatherDisplay:10.37,2013-06-16 01:04:00,
2013-06-15 21:09:00,64.6,55.0,29.93,SSW,207,0.8,2.3,71,0.00,BKN,,0.00,WeatherDisplay:10.37,2013-06-16 01:09:00,
2013-06-15 21:14:00,64.4,54.8,29.93,SSW,212,1.1,2.3,71,0.00,BKN,,0.00,WeatherDisplay:10.37,2013-06-16 01:14:00,
2013-06-15 21:19:00,64.3,55.1,29.93,SSW,213,1.3,3.5,72,0.00,BKN,,0.00,WeatherDisplay:10.37,2013-06-16 01:19:00,
2013-06-15 21:24:00,64.2,55.0,29.93,South,187,1.7,2.3,72,0.00,BKN,,0.00,WeatherDisplay:10.37,2013-06-16 01:24:00,
2013-06-15 21:29:00,64.1,55.3,29.93,SSW,205,1.7,3.0,73,0.00,BKN,,0.00,WeatherDisplay:10.37,2013-06-16 01:29:00,
2013-06-15 21:34:00,64.2,55.4,29.93,SSE,163,1.6,2.3,73,0.00,BKN,,0.00,WeatherDisplay:10.37,2013-06-16 01:34:00,
2013-06-15 21:39:00,64.2,55.0,29.92,SSW,206,0.0,2.0,72,0.00,BKN,,0.00,WeatherDisplay:10.37,2013-06-16 01:39:00,
2013-06-15 21:44:00,64.1,55.3,29.93,South,179,1.0,3.0,73,0.00,BKN,,0.00,WeatherDisplay:10.37,2013-06-16 01:44:00,
2013-06-15 21:49:00,63.9,55.1,29.93,SSE,160,1.2,1.2,73,0.00,BKN,,0.00,WeatherDisplay:10.37,2013-06-16 01:49:00,
2013-06-15 21:54:00,63.9,55.1,29.92,South,171,1.0,3.0,73,0.00,BKN,,0.00,WeatherDisplay:10.37,2013-06-16 01:54:00,
2013-06-15 21:59:00,63.9,55.1,29.93,SW,215,0.6,1.2,73,0.00,BKN,,0.00,WeatherDisplay:10.37,2013-06-16 01:59:00,
2013-06-15 22:04:00,63.9,55.1,29.93,SSE,162,1.0,4.0,73,0.00,BKN,,0.00,WeatherDisplay:10.37,2013-06-16 02:04:00,
2013-06-15 22:09:00,63.9,55.1,29.93,SSE,153,2.0,3.5,73,0.00,BKN,,0.00,WeatherDisplay:10.37,2013-06-16 02:09:00,
2013-06-15 22:14:00,63.8,55.0,29.93,South,178,1.0,3.0,73,0.00,BKN,,0.00,WeatherDisplay:10.37,2013-06-16 02:14:00,
2013-06-15 22:19:00,63.8,55.0,29.92,South,188,1.0,3.0,73,0.00,BKN,,0.00,WeatherDisplay:10.37,2013-06-16 02:19:00,
2013-06-15 22:24:00,63.7,55.3,29.92,SSW,193,0.5,1.2,74,0.00,BKN,,0.00,WeatherDisplay:10.37,2013-06-16 02:24:00,
2013-06-15 22:29:00,63.6,55.2,29.92,SW,233,2.3,3.5,74,0.00,BKN,,0.00,WeatherDisplay:10.37,2013-06-16 02:29:00,
2013-06-15 22:34:00,63.5,55.1,29.92,SW,225,0.8,2.3,74,0.00,BKN,,0.00,WeatherDisplay:10.37,2013-06-16 02:34:00,
2013-06-15 22:39:00,63.5,55.4,29.92,SSW,212,1.6,3.5,75,0.00,BKN,,0.00,WeatherDisplay:10.37,2013-06-16 02:39:00,
2013-06-15 22:44:00,63.5,55.4,29.92,SSW,207,0.9,1.2,75,0.00,BKN,,0.00,WeatherDisplay:10.37,2013-06-16 02:44:00,
2013-06-15 22:49:00,63.4,55.3,29.92,SSW,203,0.0,3.0,75,0.00,BKN,,0.00,WeatherDisplay:10.37,2013-06-16 02:49:00,
2013-06-15 22:54:00,63.4,55.3,29.91,SSE,158,1.8,3.5,75,0.00,BKN,,0.00,WeatherDisplay:10.37,2013-06-16 02:54:00,
2013-06-15 22:59:00,63.4,55.7,29.91,SSW,207,2.1,3.5,76,0.00,BKN,,0.00,WeatherDisplay:10.37,2013-06-16 02:59:00,
2013-06-15 23:04:00,63.3,55.6,29.91,South,186,1.5,3.5,76,0.00,OVC,,0.00,WeatherDisplay:10.37,2013-06-16 03:04:00,
2013-06-15 23:09:00,63.3,56.0,29.91,SSE,155,1.5,3.5,77,0.00,OVC,,0.00,WeatherDisplay:10.37,2013-06-16 03:09:00,
2013-06-15 23:14:00,63.3,56.3,29.91,SSW,200,1.3,2.3,78,0.00,OVC,,0.00,WeatherDisplay:10.37,2013-06-16 03:14:00,
2013-06-15 23:19:00,63.2,56.2,29.91,SW,222,1.7,3.5,78,0.00,OVC,,0.00,WeatherDisplay:10.37,2013-06-16 03:19:00,
2013-06-15 23:24:00,63.2,56.2,29.92,SSW,207,1.4,3.5,78,0.00,OVC,,0.00,WeatherDisplay:10.37,2013-06-16 03:24:00,
2013-06-15 23:29:00,63.2,56.6,29.92,SSW,200,2.0,3.5,79,0.00,OVC,,0.00,WeatherDisplay:10.37,2013-06-16 03:29:00,
2013-06-15 23:34:00,63.2,56.6,29.92,South,174,0.8,2.3,79,0.00,OVC,,0.00,WeatherDisplay:10.37,2013-06-16 03:34:00,
2013-06-15 23:39:00,63.2,56.6,29.91,South,170,1.4,3.5,79,0.00,OVC,,0.00,WeatherDisplay:10.37,2013-06-16 03:39:00,
2013-06-15 23:44:00,63.2,56.6,29.91,SSW,212,1.8,3.5,79,0.00,OVC,,0.00,WeatherDisplay:10.37,2013-06-16 03:44:00,
2013-06-15 23:49:00,63.1,56.5,29.91,SSW,203,1.5,3.0,79,0.00,OVC,,0.00,WeatherDisplay:10.37,2013-06-16 03:49:00,
2013-06-15 23:54:00,63.2,56.6,29.91,SW,222,1.5,3.5,79,0.00,OVC,,0.00,WeatherDisplay:10.37,2013-06-16 03:54:00,
2013-06-15 23:59:00,63.2,56.6,29.91,SW,218,1.7,2.3,79,0.00,OVC,,0.00,WeatherDisplay:10.37,2013-06-16 03:59:00,